| time (UTC) | temp C | wind direction | speed KPH | gust KPH | rain 1hr cm | rain 24hr cm | rain mn cm | humidity % | barometer mb |
| 20260506222157 | 13 | 332 | 1.6 | 4.8 | 0.00 | 1.40 | 1.40 | 61 | 1010.9 |
| 20260506221655 | 13 | 131 | 1.6 | 9.7 | 0.00 | 1.40 | 1.40 | 60 | 1011.1 |
| 20260506221153 | 14 | 148 | 3.2 | 4.8 | 0.00 | 1.40 | 1.40 | 60 | 1010.8 |
| 20260506220650 | 14 | 271 | 3.2 | 9.7 | 0.00 | 1.40 | 1.40 | 58 | 1011.0 |
| 20260506220145 | 14 | 291 | 4.8 | 4.8 | 0.00 | 1.40 | 1.40 | 60 | 1010.6 |
| 20260506215642 | 14 | 238 | 1.6 | 3.2 | 0.00 | 1.40 | 1.40 | 59 | 1010.3 |
| 20260506215137 | 14 | 21 | 1.6 | 4.8 | 0.00 | 1.40 | 1.40 | 61 | 1010.4 |
| 20260506214634 | 14 | 173 | 1.6 | 3.2 | 0.00 | 1.40 | 1.40 | 63 | 1010.4 |
| 20260506214132 | 14 | 119 | 0.0 | 3.2 | 0.00 | 1.40 | 1.40 | 62 | 1010.4 |
| 20260506213630 | 15 | 121 | 1.6 | 11.3 | 0.00 | 1.40 | 1.40 | 58 | 1010.3 |
| 20260506213127 | 15 | 166 | 0.0 | 1.6 | 0.00 | 1.40 | 1.40 | 64 | 1010.3 |
| 20260506212624 | 14 | 151 | 1.6 | 4.8 | 0.00 | 1.40 | 1.40 | 60 | 1010.1 |
| 20260506212119 | 14 | 146 | 1.6 | 8.0 | 0.00 | 1.40 | 1.40 | 61 | 1010.2 |
| 20260506211614 | 14 | 27 | 3.2 | 8.0 | 0.00 | 1.40 | 1.40 | 59 | 1010.1 |
| 20260506211112 | 15 | 89 | 0.0 | 9.7 | 0.00 | 1.40 | 1.40 | 59 | 1010.2 |
| 20260506210609 | 15 | 199 | 3.2 | 9.7 | 0.00 | 1.40 | 1.40 | 59 | 1010.0 |
| 20260506210105 | 15 | 11 | 4.8 | 4.8 | 0.00 | 1.40 | 1.40 | 57 | 1010.1 |
| 20260506205602 | 15 | 119 | 4.8 | 9.7 | 0.00 | 1.40 | 1.40 | 55 | 1010.1 |
| 20260506205057 | 15 | 122 | 1.6 | 3.2 | 0.00 | 1.40 | 1.40 | 57 | 1010.0 |
| 20260506204555 | 15 | 187 | 1.6 | 4.8 | 0.00 | 1.40 | 1.40 | 55 | 1009.7 |
| 20260506204051 | 15 | 127 | 0.0 | 3.2 | 0.00 | 1.40 | 1.40 | 57 | 1009.7 |
| 20260506203550 | 15 | 124 | 0.0 | 4.8 | 0.00 | 1.40 | 1.40 | 58 | 1009.9 |
| 20260506203046 | 15 | 75 | 1.6 | 9.7 | 0.00 | 1.40 | 1.40 | 59 | 1009.9 |
| 20260506202544 | 16 | 124 | 1.6 | 4.8 | 0.00 | 1.40 | 1.40 | 59 | 1009.8 |
| 20260506202040 | 16 | 130 | 0.0 | 1.6 | 0.00 | 1.40 | 1.40 | 61 | 1010.0 |
| 20260506201538 | 15 | 164 | 1.6 | 4.8 | 0.00 | 1.40 | 1.40 | 60 | 1010.1 |
| 20260506201034 | 15 | 224 | 4.8 | 9.7 | 0.00 | 1.40 | 1.40 | 56 | 1009.9 |
| 20260506200530 | 15 | 126 | 1.6 | 3.2 | 0.00 | 1.40 | 1.40 | 57 | 1009.9 |
| 20260506200027 | 15 | 113 | 1.6 | 3.2 | 0.00 | 1.40 | 1.40 | 56 | 1009.7 |
| 20260506195524 | 15 | 266 | 4.8 | 11.3 | 0.00 | 1.40 | 1.40 | 56 | 1009.6 |
| 20260506195020 | 15 | 243 | 1.6 | 3.2 | 0.00 | 1.40 | 1.40 | 56 | 1009.8 |
| 20260506194518 | 15 | 245 | 3.2 | 4.8 | 0.00 | 1.40 | 1.40 | 53 | 1009.7 |
| 20260506194014 | 15 | 187 | 4.8 | 8.0 | 0.00 | 1.40 | 1.40 | 58 | 1009.9 |
| 20260506193512 | 15 | 227 | 4.8 | 12.9 | 0.00 | 1.40 | 1.40 | 60 | 1009.9 |
| 20260506193009 | 15 | 231 | 1.6 | 8.0 | 0.00 | 1.40 | 1.40 | 61 | 1009.9 |
| 20260506192505 | 16 | 98 | 1.6 | 4.8 | 0.00 | 1.40 | 1.40 | 58 | 1009.7 |
| 20260506192001 | 15 | 132 | 0.0 | 3.2 | 0.00 | 1.40 | 1.40 | 60 | 1009.9 |
| 20260506191458 | 16 | 219 | 1.6 | 3.2 | 0.00 | 1.40 | 1.40 | 60 | 1010.1 |
| 20260506190955 | 15 | 239 | 1.6 | 8.0 | 0.00 | 1.40 | 1.40 | 59 | 1010.0 |
| 20260506190452 | 15 | 225 | 1.6 | 8.0 | 0.00 | 1.40 | 1.40 | 60 | 1010.1 |
| 20260506185948 | 15 | 58 | 4.8 | 9.7 | 0.00 | 1.40 | 1.40 | 57 | 1010.3 |
| 20260506185446 | 15 | 100 | 0.0 | 1.6 | 0.00 | 1.40 | 1.40 | 58 | 1010.1 |
| 20260506184943 | 15 | 204 | 6.4 | 8.0 | 0.00 | 1.40 | 1.40 | 57 | 1010.4 |
| 20260506184439 | 15 | 202 | 3.2 | 4.8 | 0.00 | 1.40 | 1.40 | 59 | 1010.3 |
| 20260506183937 | 15 | 183 | 4.8 | 8.0 | 0.00 | 1.40 | 1.40 | 63 | 1010.1 |
| 20260506183432 | 15 | 122 | 0.0 | 3.2 | 0.00 | 1.40 | 1.40 | 61 | 1010.1 |
| 20260506182929 | 15 | 87 | 0.0 | 1.6 | 0.00 | 1.40 | 1.40 | 65 | 1010.2 |
| 20260506182427 | 15 | 290 | 6.4 | 11.3 | 0.00 | 1.40 | 1.40 | 64 | 1010.1 |
| 20260506181924 | 14 | 198 | 1.6 | 3.2 | 0.00 | 1.40 | 1.40 | 65 | 1010.4 |
| 20260506181422 | 14 | 116 | 1.6 | 3.2 | 0.00 | 1.40 | 1.40 | 66 | 1010.2 |
| 20260506180918 | 14 | 246 | 1.6 | 9.7 | 0.00 | 1.40 | 1.40 | 64 | 1010.1 |
| 20260506180414 | 14 | 218 | 4.8 | 9.7 | 0.00 | 1.40 | 1.40 | 65 | 1010.0 |
| 20260506175912 | 15 | 90 | 1.6 | 14.5 | 0.00 | 1.40 | 1.40 | 66 | 1010.1 |
| 20260506175408 | 15 | 229 | 4.8 | 8.0 | 0.00 | 1.40 | 1.40 | 66 | 1010.4 |
| 20260506174905 | 15 | 345 | 1.6 | 4.8 | 0.00 | 1.40 | 1.40 | 69 | 1010.1 |
| 20260506174403 | 15 | 116 | 1.6 | 4.8 | 0.00 | 1.40 | 1.40 | 66 | 1010.1 |
| 20260506173900 | 15 | 146 | 1.6 | 4.8 | 0.00 | 1.40 | 1.40 | 67 | 1010.4 |
| 20260506173356 | 15 | 236 | 4.8 | 9.7 | 0.00 | 1.40 | 1.40 | 68 | 1010.2 |
| 20260506172854 | 15 | 1 | 1.6 | 9.7 | 0.00 | 1.40 | 1.40 | 68 | 1010.2 |
| 20260506172350 | 15 | 226 | 3.2 | 11.3 | 0.00 | 1.40 | 1.40 | 69 | 1010.2 |
| 20260506171848 | 14 | 224 | 6.4 | 9.7 | 0.00 | 1.40 | 1.40 | 71 | 1010.3 |
| 20260506171344 | 14 | 105 | 1.6 | 11.3 | 0.00 | 1.40 | 1.40 | 67 | 1010.7 |
| 20260506170842 | 13 | 50 | 8.0 | 12.9 | 0.00 | 1.40 | 1.40 | 68 | 1010.5 |
| 20260506170338 | 14 | 182 | 3.2 | 11.3 | 0.00 | 1.40 | 1.40 | 70 | 1010.4 |
| 20260506165832 | 14 | 108 | 1.6 | 12.9 | 0.00 | 1.40 | 1.40 | 71 | 1010.6 |
| 20260506165329 | 13 | 93 | 0.0 | 4.8 | 0.00 | 1.40 | 1.40 | 74 | 1010.2 |
| 20260506164825 | 13 | 120 | 0.0 | 1.6 | 0.00 | 1.40 | 1.40 | 74 | 1010.1 |
| 20260506164322 | 13 | 230 | 9.7 | 11.3 | 0.00 | 1.40 | 1.40 | 77 | 1009.8 |
| 20260506163819 | 13 | 210 | 8.0 | 9.7 | 0.00 | 1.40 | 1.40 | 75 | 1010.3 |
| 20260506163314 | 13 | 225 | 11.3 | 14.5 | 0.00 | 1.40 | 1.40 | 77 | 1010.5 |
| 20260506162810 | 13 | 78 | 1.6 | 3.2 | 0.00 | 1.40 | 1.40 | 74 | 1010.6 |
| 20260506162308 | 13 | 245 | 3.2 | 8.0 | 0.00 | 1.40 | 1.40 | 76 | 1010.3 |
| 20260506161805 | 13 | 174 | 1.6 | 1.6 | 0.00 | 1.40 | 1.40 | 77 | 1010.4 |
| 20260506161302 | 12 | 117 | 0.0 | 8.0 | 0.00 | 1.40 | 1.40 | 80 | 1010.5 |
| 20260506160800 | 12 | 186 | 3.2 | 4.8 | 0.00 | 1.40 | 1.40 | 80 | 1010.3 |
| 20260506160256 | 11 | 260 | 4.8 | 9.7 | 0.00 | 1.40 | 1.40 | 83 | 1010.3 |
| 20260506155755 | 11 | 267 | 3.2 | 11.3 | 0.00 | 1.40 | 1.40 | 78 | 1010.3 |
| 20260506155251 | 11 | 181 | 8.0 | 12.9 | 0.00 | 1.40 | 1.40 | 81 | 1010.4 |
| 20260506153404 | 11 | 269 | 6.4 | 9.7 | 0.00 | 1.40 | 1.40 | 84 | 1010.0 |
| 20260506152901 | 10 | 25 | 3.2 | 4.8 | 0.00 | 1.40 | 1.40 | 85 | 1010.3 |
| 20260506152358 | 10 | 259 | 4.8 | 4.8 | 0.00 | 1.40 | 1.40 | 85 | 1010.1 |
| 20260506151857 | 10 | 269 | 4.8 | 8.0 | 0.00 | 1.40 | 1.40 | 85 | 1009.9 |
| 20260506151353 | 10 | 255 | 4.8 | 12.9 | 0.00 | 1.40 | 1.40 | 85 | 1009.7 |
| 20260506150851 | 11 | 158 | 3.2 | 8.0 | 0.00 | 1.40 | 1.40 | 86 | 1009.8 |
| 20260506150347 | 11 | 188 | 4.8 | 8.0 | 0.00 | 1.40 | 1.40 | 86 | 1009.6 |
| 20260506145844 | 10 | 130 | 0.0 | 3.2 | 0.00 | 1.40 | 1.40 | 85 | 1009.5 |
| 20260506145340 | 10 | 355 | 9.7 | 12.9 | 0.00 | 1.40 | 1.40 | 86 | 1009.4 |
| 20260506144838 | 10 | 60 | 3.2 | 9.7 | 0.00 | 1.40 | 1.40 | 86 | 1009.6 |
| 20260506144334 | 10 | 280 | 8.0 | 11.3 | 0.00 | 1.40 | 1.40 | 88 | 1009.6 |
| 20260506143833 | 10 | 355 | 3.2 | 8.0 | 0.00 | 1.40 | 1.40 | 88 | 1009.6 |
| 20260506143329 | 10 | 259 | 3.2 | 3.2 | 0.00 | 1.40 | 1.40 | 88 | 1009.3 |
| 20260506142828 | 10 | 209 | 1.6 | 4.8 | 0.00 | 1.40 | 1.40 | 88 | 1009.3 |
| 20260506142325 | 10 | 166 | 1.6 | 4.8 | 0.00 | 1.40 | 1.40 | 89 | 1009.4 |
| 20260506141823 | 10 | 259 | 1.6 | 8.0 | 0.00 | 1.40 | 1.40 | 89 | 1009.1 |
| 20260506141321 | 10 | 126 | 1.6 | 4.8 | 0.00 | 1.40 | 1.40 | 89 | 1009.0 |
| 20260506140819 | 10 | 236 | 3.2 | 8.0 | 0.00 | 1.40 | 1.40 | 89 | 1009.0 |
| 20260506140315 | 10 | 271 | 0.0 | 9.7 | 0.00 | 1.40 | 1.40 | 88 | 1009.0 |
| 20260506135813 | 10 | 203 | 1.6 | 3.2 | 0.00 | 1.40 | 1.40 | 90 | 1008.8 |
| 20260506135309 | 10 | 110 | 0.0 | 1.6 | 0.00 | 1.40 | 1.40 | 89 | 1008.7 |
| 20260506134806 | 10 | 186 | 0.0 | 4.8 | 0.00 | 1.40 | 1.40 | 90 | 1008.8 |
| 20260506134302 | 10 | 182 | 1.6 | 3.2 | 0.00 | 1.40 | 1.40 | 91 | 1008.7 |
| 20260506133759 | 10 | 225 | 1.6 | 3.2 | 0.00 | 1.40 | 1.40 | 91 | 1008.4 |
| 20260506133256 | 10 | 150 | 0.0 | 1.6 | 0.00 | 1.40 | 1.40 | 94 | 1008.5 |
| 20260506132753 | 9 | 205 | 3.2 | 4.8 | 0.00 | 1.40 | 1.40 | 93 | 1008.7 |
| 20260506132250 | 8 | 195 | 1.6 | 3.2 | 0.00 | 1.40 | 1.40 | 94 | 1008.4 |
| 20260506131748 | 9 | 214 | 1.6 | 1.6 | 0.00 | 1.40 | 1.40 | 95 | 1008.5 |
| 20260506131243 | 8 | 103 | 1.6 | 4.8 | 0.00 | 1.40 | 1.40 | 95 | 1008.3 |
| 20260506130740 | 8 | 236 | 0.0 | 1.6 | 0.00 | 1.40 | 1.40 | 96 | 1008.4 |
| 20260506130237 | 8 | 172 | 0.0 | 1.6 | 0.00 | 1.40 | 1.40 | 96 | 1008.5 |
| 20260506125736 | 8 | 212 | 3.2 | 3.2 | 0.00 | 1.40 | 1.40 | 96 | 1008.5 |
| 20260506125233 | 8 | 47 | 1.6 | 8.0 | 0.00 | 1.40 | 1.40 | 96 | 1008.4 |
| 20260506124731 | 8 | 82 | 1.6 | 1.6 | 0.00 | 1.40 | 1.40 | 96 | 1008.3 |
| 20260506124229 | 8 | 179 | 1.6 | 3.2 | 0.00 | 1.40 | 1.40 | 96 | 1008.0 |
| 20260506123726 | 8 | 190 | 0.0 | 0.0 | 0.00 | 1.40 | 1.40 | 96 | 1007.8 |
| 20260506123225 | 8 | 140 | 0.0 | 1.6 | 0.00 | 1.40 | 1.40 | 96 | 1007.9 |
| 20260506122721 | 8 | 171 | 0.0 | 1.6 | 0.00 | 1.40 | 1.40 | 96 | 1007.9 |
| 20260506122218 | 7 | 103 | 0.0 | 1.6 | 0.00 | 1.40 | 1.40 | 96 | 1008.4 |
| 20260506121716 | 8 | 189 | 1.6 | 3.2 | 0.00 | 1.40 | 1.40 | 96 | 1008.1 |
| 20260506121212 | 7 | 195 | 1.6 | 3.2 | 0.00 | 1.40 | 1.40 | 96 | 1008.0 |
| 20260506120710 | 7 | 192 | 0.0 | 1.6 | 0.00 | 1.40 | 1.40 | 96 | 1007.9 |
| 20260506120208 | 7 | 152 | 1.6 | 1.6 | 0.00 | 1.40 | 1.40 | 96 | 1007.8 |
| 20260506115706 | 7 | 205 | 3.2 | 4.8 | 0.00 | 1.40 | 1.40 | 96 | 1007.9 |
| 20260506115204 | 7 | 132 | 1.6 | 3.2 | 0.00 | 1.40 | 1.40 | 96 | 1007.7 |
| 20260506114701 | 7 | 184 | 1.6 | 1.6 | 0.00 | 1.40 | 1.40 | 96 | 1007.4 |
| 20260506114158 | 7 | 204 | 4.8 | 4.8 | 0.18 | 1.40 | 1.40 | 96 | 1006.9 |
| 20260506113657 | 7 | 181 | 0.0 | 1.6 | 0.00 | 1.37 | 1.37 | 96 | 1006.9 |
| 20260506113154 | 7 | 244 | 4.8 | 4.8 | 0.00 | 1.37 | 1.37 | 96 | 1007.1 |
| 20260506112649 | 7 | 189 | 1.6 | 3.2 | 0.00 | 1.37 | 1.37 | 96 | 1007.1 |
| 20260506112148 | 7 | 273 | 4.8 | 4.8 | 0.00 | 1.37 | 1.37 | 96 | 1007.4 |
| 20260506111645 | 7 | 194 | 1.6 | 3.2 | 0.00 | 1.37 | 1.37 | 96 | 1006.8 |
| 20260506111143 | 7 | 169 | 0.0 | 3.2 | 0.00 | 1.37 | 1.37 | 96 | 1007.4 |
| 20260506110640 | 7 | 136 | 1.6 | 3.2 | 0.00 | 1.37 | 1.37 | 96 | 1007.1 |
| 20260506110137 | 7 | 182 | 0.0 | 1.6 | 0.00 | 1.37 | 1.37 | 96 | 1007.1 |
| 20260506105633 | 7 | 127 | 1.6 | 4.8 | 0.00 | 1.37 | 1.37 | 96 | 1006.7 |
| 20260506105130 | 7 | 192 | 0.0 | 4.8 | 0.00 | 1.37 | 1.37 | 96 | 1006.7 |
| 20260506104629 | 7 | 234 | 3.2 | 3.2 | 0.00 | 1.37 | 1.37 | 96 | 1006.7 |
| 20260506104126 | 7 | 254 | 1.6 | 1.6 | 0.00 | 1.37 | 1.37 | 96 | 1006.1 |
| 20260506103623 | 7 | 112 | 1.6 | 3.2 | 0.00 | 1.37 | 1.37 | 95 | 1005.8 |
| 20260506103120 | 7 | 200 | 1.6 | 3.2 | 0.00 | 1.37 | 1.37 | 95 | 1005.8 |
| 20260506102618 | 7 | 167 | 0.0 | 1.6 | 0.13 | 1.37 | 1.37 | 95 | 1005.4 |
| 20260506102115 | 7 | 109 | 0.0 | 1.6 | 0.13 | 1.37 | 1.37 | 95 | 1005.6 |
| 20260506101612 | 7 | 117 | 3.2 | 4.8 | 0.00 | 1.35 | 1.35 | 95 | 1005.7 |
| 20260506101108 | 7 | 283 | 4.8 | 9.7 | 0.00 | 1.35 | 1.35 | 95 | 1005.7 |
| 20260506100607 | 7 | 217 | 4.8 | 4.8 | 0.00 | 1.35 | 1.35 | 95 | 1006.0 |
| 20260506100105 | 7 | 273 | 8.0 | 9.7 | 0.00 | 1.35 | 1.35 | 95 | 1005.9 |
| 20260506095604 | 8 | 263 | 4.8 | 4.8 | 0.00 | 1.35 | 1.35 | 96 | 1005.7 |
| 20260506095100 | 8 | 128 | 0.0 | 1.6 | 0.00 | 1.35 | 1.35 | 96 | 1005.8 |
| 20260506094557 | 8 | 346 | 4.8 | 4.8 | 0.00 | 1.35 | 1.35 | 95 | 1005.8 |
| 20260506094055 | 8 | 127 | 3.2 | 4.8 | 0.18 | 1.35 | 1.35 | 95 | 1005.7 |
| 20260506093553 | 8 | 99 | 0.0 | 3.2 | 0.00 | 1.32 | 1.32 | 95 | 1005.5 |
| 20260506093051 | 8 | 92 | 0.0 | 1.6 | 0.13 | 1.32 | 1.32 | 95 | 1005.8 |
| 20260506092548 | 8 | 110 | 1.6 | 3.2 | 0.13 | 1.32 | 1.32 | 95 | 1006.2 |
| 20260506092045 | 8 | 159 | 0.0 | 3.2 | 0.18 | 1.30 | 1.30 | 95 | 1006.5 |
| 20260506091543 | 8 | 69 | 4.8 | 9.7 | 0.30 | 1.30 | 1.30 | 95 | 1006.4 |
| 20260506091040 | 8 | 121 | 1.6 | 4.8 | 0.43 | 1.27 | 1.27 | 95 | 1006.1 |
| 20260506090538 | 8 | 139 | 1.6 | 3.2 | 0.30 | 1.22 | 1.22 | 95 | 1005.7 |
| 20260506090034 | 8 | 258 | 4.8 | 8.0 | 0.36 | 1.19 | 1.19 | 96 | 1006.0 |
| 20260506085531 | 8 | 325 | 1.6 | 11.3 | 0.48 | 1.17 | 1.17 | 96 | 1005.8 |
| 20260506085027 | 8 | 250 | 4.8 | 4.8 | 0.30 | 1.12 | 1.12 | 96 | 1005.8 |
| 20260506084525 | 9 | 212 | 3.2 | 11.3 | 0.43 | 1.09 | 1.09 | 96 | 1005.9 |
| 20260506084020 | 10 | 222 | 1.6 | 12.9 | 0.48 | 1.07 | 1.07 | 96 | 1005.9 |
| 20260506083518 | 10 | 255 | 1.6 | 9.7 | 0.18 | 1.02 | 1.02 | 96 | 1005.6 |
| 20260506083015 | 10 | 276 | 1.6 | 3.2 | 0.13 | 0.99 | 0.99 | 96 | 1005.4 |
| 20260506082512 | 10 | 90 | 1.6 | 3.2 | 0.13 | 0.99 | 0.99 | 96 | 1005.1 |
| 20260506082007 | 10 | 135 | 0.0 | 1.6 | 0.00 | 0.97 | 0.97 | 96 | 1004.9 |
| 20260506081506 | 10 | 83 | 0.0 | 4.8 | 0.00 | 0.97 | 0.97 | 96 | 1004.8 |
| 20260506081003 | 10 | 234 | 0.0 | 8.0 | 0.18 | 0.97 | 0.97 | 96 | 1004.9 |
| 20260506080500 | 10 | 192 | 1.6 | 4.8 | 0.30 | 0.97 | 0.97 | 96 | 1005.0 |
| 20260506073443 | 11 | 348 | 1.6 | 3.2 | 0.43 | 0.71 | 0.71 | 97 | 1004.7 |
| 20260506072941 | 11 | 273 | 4.8 | 4.8 | 0.61 | 0.69 | 0.69 | 97 | 1004.7 |
| 20260506072438 | 11 | 52 | 3.2 | 4.8 | 0.30 | 0.61 | 0.61 | 97 | 1004.3 |
| 20260506071936 | 11 | 139 | 0.0 | 3.2 | 0.30 | 0.58 | 0.58 | 97 | 1004.5 |
| 20260506071433 | 11 | 151 | 0.0 | 1.6 | 0.30 | 0.56 | 0.56 | 97 | 1004.5 |
| 20260506070930 | 12 | 158 | 1.6 | 3.2 | 0.36 | 0.53 | 0.53 | 96 | 1004.1 |
| 20260506070427 | 13 | 109 | 1.6 | 3.2 | 0.30 | 0.51 | 0.51 | 96 | 1004.4 |
| 20260506062405 | 14 | 172 | 0.0 | 0.0 | 0.18 | 0.25 | 0.25 | 97 | 1004.7 |
| 20260506061900 | 14 | 138 | 0.0 | 0.0 | 0.00 | 0.23 | 0.23 | 97 | 1004.8 |
| 20260506061357 | 14 | 192 | 0.0 | 0.0 | 0.00 | 0.23 | 0.23 | 97 | 1004.6 |
| 20260506060855 | 14 | 126 | 0.0 | 0.0 | 0.00 | 0.23 | 0.23 | 97 | 1004.6 |
| 20260506060353 | 14 | 149 | 0.0 | 0.0 | 0.00 | 0.23 | 0.23 | 97 | 1004.6 |
| 20260506051325 | 15 | 198 | 0.0 | 1.6 | 0.00 | 0.20 | 0.20 | 97 | 1005.6 |
| 20260506050823 | 15 | 116 | 0.0 | 0.0 | 0.00 | 0.20 | 0.20 | 97 | 1005.5 |
| 20260506050320 | 15 | 187 | 0.0 | 0.0 | 0.00 | 0.20 | 0.20 | 97 | 1005.7 |
| 20260506044810 | 15 | 287 | 1.6 | 1.6 | 0.30 | 0.20 | 0.20 | 97 | 1005.8 |
| 20260506044308 | 15 | 201 | 1.6 | 3.2 | 0.18 | 0.18 | 0.18 | 97 | 1005.9 |
| 20260506043805 | 15 | 129 | 0.0 | 0.0 | 0.13 | 0.15 | 0.15 | 97 | 1005.9 |
| 20260506043302 | 15 | 157 | 0.0 | 0.0 | 0.30 | 0.15 | 0.15 | 97 | 1006.1 |
| 20260506042801 | 15 | 114 | 0.0 | 0.0 | 0.30 | 0.13 | 0.13 | 97 | 1006.1 |
| 20260506042259 | 15 | 125 | 0.0 | 0.0 | 0.30 | 0.10 | 0.10 | 97 | 1006.2 |
| 20260506041757 | 15 | 108 | 0.0 | 0.0 | 0.30 | 0.08 | 0.08 | 97 | 1006.3 |
| 20260506041254 | 15 | 171 | 1.6 | 1.6 | 0.13 | 0.05 | 0.05 | 97 | 1006.3 |
| 20260506040751 | 15 | 123 | 0.0 | 0.0 | 0.18 | 0.03 | 0.03 | 97 | 1006.4 |
| 20260506040248 | 15 | 156 | 0.0 | 0.0 | 0.30 | 0.03 | 0.03 | 97 | 1006.2 |
| 20260506035745 | 15 | 119 | 0.0 | 0.0 | 0.30 | 0.74 | 0.74 | 97 | 1006.1 |
| 20260506035242 | 15 | 133 | 0.0 | 0.0 | 0.00 | 0.69 | 0.69 | 97 | 1006.2 |
| 20260506034739 | 15 | 139 | 0.0 | 0.0 | 0.13 | 0.69 | 0.69 | 97 | 1006.4 |
| 20260506034236 | 15 | 172 | 0.0 | 0.0 | 0.13 | 0.69 | 0.69 | 97 | 1006.4 |
| 20260506033733 | 15 | 115 | 0.0 | 0.0 | 0.18 | 0.66 | 0.66 | 97 | 1006.5 |
| 20260506033230 | 15 | 132 | 0.0 | 0.0 | 0.18 | 0.66 | 0.66 | 97 | 1006.3 |
| 20260506032727 | 15 | 152 | 0.0 | 0.0 | 0.00 | 0.64 | 0.64 | 97 | 1006.2 |
| 20260506032224 | 15 | 124 | 0.0 | 0.0 | 0.18 | 0.64 | 0.64 | 97 | 1006.2 |
| 20260506031720 | 15 | 153 | 0.0 | 0.0 | 0.13 | 0.61 | 0.61 | 97 | 1006.5 |
| 20260506031218 | 15 | 129 | 0.0 | 0.0 | 0.30 | 0.61 | 0.61 | 97 | 1006.5 |
| 20260506030716 | 15 | 108 | 0.0 | 0.0 | 0.30 | 0.58 | 0.58 | 96 | 1006.4 |
| 20260506030213 | 15 | 129 | 0.0 | 0.0 | 0.30 | 0.56 | 0.56 | 96 | 1006.4 |
| 20260506025710 | 15 | 120 | 0.0 | 0.0 | 0.30 | 0.53 | 0.53 | 96 | 1006.3 |
| 20260506025206 | 15 | 123 | 0.0 | 0.0 | 0.30 | 0.51 | 0.51 | 96 | 1006.4 |
| 20260506024703 | 15 | 129 | 0.0 | 0.0 | 0.30 | 0.48 | 0.48 | 96 | 1006.6 |
| 20260506024159 | 15 | 144 | 0.0 | 0.0 | 0.30 | 0.46 | 0.46 | 96 | 1006.3 |
| 20260506023656 | 15 | 151 | 0.0 | 0.0 | 0.18 | 0.43 | 0.43 | 96 | 1006.4 |
| 20260506023154 | 15 | 126 | 0.0 | 0.0 | 0.13 | 0.41 | 0.41 | 96 | 1006.3 |
| 20260506022650 | 15 | 153 | 0.0 | 0.0 | 0.13 | 0.41 | 0.41 | 96 | 1006.4 |
| 20260506022148 | 15 | 153 | 0.0 | 0.0 | 0.18 | 0.38 | 0.38 | 96 | 1006.2 |
| 20260506021646 | 15 | 168 | 0.0 | 0.0 | 0.18 | 0.38 | 0.38 | 96 | 1006.4 |
| 20260506021143 | 15 | 106 | 0.0 | 0.0 | 0.00 | 0.36 | 0.36 | 96 | 1006.4 |
| 20260506020640 | 15 | 195 | 1.6 | 1.6 | 0.00 | 0.36 | 0.36 | 96 | 1006.3 |
| 20260506020137 | 15 | 146 | 0.0 | 1.6 | 0.00 | 0.36 | 0.36 | 96 | 1006.3 |
| 20260506015635 | 15 | 120 | 0.0 | 1.6 | 0.00 | 0.36 | 0.36 | 96 | 1006.5 |
| 20260506015132 | 15 | 198 | 1.6 | 4.8 | 0.13 | 0.36 | 0.36 | 96 | 1006.6 |
| 20260506014629 | 15 | 128 | 0.0 | 0.0 | 0.13 | 0.36 | 0.36 | 96 | 1006.5 |
| 20260506014124 | 15 | 112 | 0.0 | 0.0 | 0.00 | 0.33 | 0.33 | 96 | 1006.5 |
| 20260506013623 | 15 | 150 | 0.0 | 0.0 | 0.00 | 0.33 | 0.33 | 96 | 1006.6 |
| 20260506013119 | 15 | 149 | 0.0 | 0.0 | 0.00 | 0.33 | 0.33 | 96 | 1006.3 |
| 20260506012616 | 15 | 126 | 0.0 | 0.0 | 0.00 | 0.33 | 0.33 | 96 | 1006.4 |
| 20260506012112 | 15 | 138 | 0.0 | 0.0 | 0.00 | 0.33 | 0.33 | 96 | 1006.1 |
| 20260506011610 | 15 | 172 | 0.0 | 0.0 | 0.00 | 0.33 | 0.33 | 95 | 1006.4 |
| 20260506011106 | 15 | 150 | 0.0 | 0.0 | 0.00 | 0.33 | 0.33 | 95 | 1006.1 |
| 20260506010600 | 15 | 120 | 0.0 | 0.0 | 0.00 | 0.33 | 0.33 | 95 | 1006.2 |
| 20260506010056 | 15 | 125 | 0.0 | 0.0 | 0.00 | 0.33 | 0.33 | 95 | 1006.5 |
| 20260506005553 | 15 | 134 | 0.0 | 0.0 | 0.00 | 0.33 | 0.33 | 95 | 1006.2 |
| 20260506005049 | 15 | 137 | 0.0 | 1.6 | 0.00 | 0.33 | 0.33 | 95 | 1006.3 |
| 20260506004547 | 15 | 153 | 0.0 | 3.2 | 0.00 | 0.33 | 0.33 | 95 | 1006.2 |
| 20260506004043 | 15 | 139 | 0.0 | 0.0 | 0.00 | 0.33 | 0.33 | 94 | 1006.2 |
| 20260506003540 | 15 | 120 | 0.0 | 0.0 | 0.00 | 0.33 | 0.33 | 94 | 1006.4 |
| 20260506003036 | 15 | 125 | 0.0 | 0.0 | 0.00 | 0.33 | 0.33 | 94 | 1006.3 |
| 20260506002532 | 15 | 124 | 0.0 | 3.2 | 0.00 | 0.33 | 0.33 | 94 | 1006.3 |
| 20260506002028 | 15 | 263 | 3.2 | 4.8 | 0.00 | 0.33 | 0.33 | 94 | 1006.2 |
| 20260506001524 | 15 | 189 | 1.6 | 1.6 | 0.00 | 0.33 | 0.33 | 93 | 1006.4 |
| 20260506001022 | 15 | 154 | 1.6 | 1.6 | 0.00 | 0.33 | 0.33 | 93 | 1006.5 |
| 20260506000519 | 15 | 132 | 1.6 | 1.6 | 0.18 | 0.33 | 0.33 | 92 | 1006.5 |
| 20260506000017 | 15 | 34 | 4.8 | 8.0 | 0.36 | 0.33 | 0.33 | 92 | 1006.7 |
| 20260505235514 | 15 | 86 | 1.6 | 9.7 | 1.50 | 0.30 | 0.30 | 91 | 1006.4 |
| 20260505235011 | 16 | 226 | 12.9 | 17.7 | 1.63 | 0.28 | 0.28 | 90 | 1006.6 |
| 20260505234508 | 16 | 218 | 8.0 | 16.1 | 0.13 | 0.03 | 0.03 | 87 | 1006.5 |
| 20260505234005 | 17 | 357 | 3.2 | 12.9 | 0.00 | 0.00 | 0.00 | 85 | 1005.9 |
| 20260505233502 | 17 | 171 | 3.2 | 11.3 | 0.00 | 0.00 | 0.00 | 82 | 1005.8 |
| 20260505232959 | 18 | 249 | 9.7 | 16.1 | 0.00 | 0.00 | 0.00 | 78 | 1006.0 |
| 20260505232457 | 21 | 351 | 6.4 | 8.0 | 0.00 | 0.00 | 0.00 | 67 | 1005.7 |
| 20260505231954 | 21 | 211 | 4.8 | 8.0 | 0.00 | 0.00 | 0.00 | 64 | 1005.9 |
| 20260505231451 | 21 | 143 | 3.2 | 9.7 | 0.00 | 0.00 | 0.00 | 63 | 1005.5 |
| 20260505230950 | 21 | 221 | 8.0 | 11.3 | 0.00 | 0.00 | 0.00 | 63 | 1005.5 |
| 20260505230447 | 21 | 229 | 3.2 | 12.9 | 0.00 | 0.00 | 0.00 | 62 | 1005.5 |
| 20260505225943 | 21 | 242 | 8.0 | 12.9 | 0.00 | 0.00 | 0.00 | 62 | 1005.4 |
| 20260505225441 | 21 | 103 | 6.4 | 9.7 | 0.00 | 0.00 | 0.00 | 62 | 1005.7 |
| 20260505224936 | 21 | 242 | 8.0 | 20.9 | 0.00 | 0.00 | 0.00 | 62 | 1005.7 |
| 20260505224433 | 21 | 263 | 4.8 | 16.1 | 0.00 | 0.00 | 0.00 | 62 | 1005.6 |
| 20260505223931 | 21 | 348 | 9.7 | 27.4 | 0.00 | 0.00 | 0.00 | 61 | 1005.8 |
| 20260505223427 | 21 | 104 | 3.2 | 9.7 | 0.00 | 0.00 | 0.00 | 62 | 1005.3 |
| 20260505222924 | 21 | 325 | 4.8 | 16.1 | 0.00 | 0.00 | 0.00 | 61 | 1005.4 |
| 20260505222420 | 21 | 112 | 3.2 | 12.9 | 0.00 | 0.00 | 0.00 | 62 | 1005.5 |